Cloud_Cover
9 10 3 14 6 0 4 0 0 0 0 0 0 0 0 0 0 0 0 0 0 0 1 16 68 88 100 100 100 100 100 100 100 100 100 100 100 5 6 100 100 54 95 40 40
15 9 10 2 5 0 0 0 0 0 0 0 0 0 0 0 0 0 0 0 0 0 0 5 86 39 100 100 100 100 98 100 100 100 100 100 84 41 13 34 70 100 99 54 89
14 13 11 0 0 0 0 0 0 0 0 0 0 0 0 0 0 0 0 0 0 0 0 5 70 96 96 8 100 100 94 68 59 100 100 100 100 86 34 28 99 100 99 28 22
12 12 4 3 3 1 0 0 0 0 0 0 0 0 0 0 0 0 0 0 0 0 0 5 50 70 95 48 26 100 100 100 100 100 100 100 100 100 98 100 100 100 96 36 7
12 7 5 10 14 12 13 2 1 0 0 0 0 0 0 0 0 0 0 0 0 0 0 8 98 15 58 90 77 84 100 75 100 100 100 100 100 100 100 100 100 29 54 68 5
12 10 0 4 8 1 4 3 0 0 0 0 0 0 1 0 0 0 0 0 0 0 0 4 86 42 73 99 46 10 16 5 5 100 100 100 100 100 100 100 100 74 22 54 26
29 1 0 0 0 10 5 9 0 0 0 0 0 0 0 0 0 0 0 0 0 0 0 4 86 67 6 42 100 100 96 4 5 98 100 100 100 100 100 100 100 100 100 83 29
100 40 10 0 0 0 9 3 0 0 0 0 0 0 0 0 0 0 0 0 0 0 0 0 10 92 1 7 94 100 55 4 5 31 100 77 100 100 100 100 100 100 100 100 83
64 0 0 0 0 0 4 0 0 0 0 0 0 0 0 0 0 0 0 0 0 0 0 0 0 6 2 5 4 5 5 4 5 99 100 88 83 7 100 100 100 100 100 100 94
0 0 0 0 0 0 0 0 0 0 0 0 0 0 0 0 0 0 0 0 0 0 0 0 0 0 2 5 12 36 4 24 14 71 6 46 4 74 94 100 100 100 100 100 94
0 0 0 0 0 0 12 0 0 0 0 0 0 0 0 0 0 0 0 0 0 0 0 0 0 0 1 5 51 5 25 45 88 7 74 99 75 7 94 100 100 100 100 92 97
0 0 0 0 0 0 47 0 0 0 0 0 0 0 0 0 0 0 0 0 0 0 0 0 0 0 0 5 65 7 74 14 58 3 6 20 36 34 11 92 74 100 74 100 100
0 0 0 0 0 0 0 0 0 0 0 0 0 0 0 0 0 0 0 0 0 0 0 0 0 0 0 0 7 8 48 5 5 3 45 33 69 92 100 100 84 100 91 100 100
0 0 0 0 0 0 0 0 0 0 0 0 0 0 0 0 0 0 0 0 0 0 0 0 0 0 0 0 0 5 74 64 89 7 5 61 98 100 98 98 96 83 79 100 100
0 0 0 0 0 0 0 0 0 0 0 0 0 0 0 0 0 0 0 0 0 0 0 0 0 0 0 0 0 0 100 94 13 6 4 5 33 100 100 100 98 84 100 100 100
0 0 37 0 0 0 0 0 0 0 0 0 0 0 0 0 0 0 0 0 0 0 0 0 0 0 0 0 0 0 95 99 91 74 5 5 6 100 100 83 100 97 95 100 100
0 0 85 0 0 0 0 0 0 0 0 0 0 0 0 0 0 0 0 0 0 0 0 0 0 0 0 0 0 0 52 99 69 37 3 55 2 2 87 99 100 98 98 99 99
0 7 1 11 0 0 0 0 0 0 0 0 0 0 0 0 0 0 0 0 0 0 0 0 0 0 0 0 0 0 27 44 68 18 20 99 12 2 0 59 100 70 99 100 100
0 0 0 0 0 0 0 0 0 0 0 0 0 0 0 0 0 0 0 0 0 0 0 0 0 0 0 0 0 0 0 9 100 100 7 74 5 0 0 4 98 99 100 100 100
0 0 0 0 0 0 0 0 1 0 0 0 3 2 2 0 0 0 0 0 0 0 0 0 0 0 0 0 0 0 0 5 54 76 5 3 1 4 0 98 100 100 100 98 93
0 0 0 0 0 0 0 2 9 3 4 3 7 5 56 18 0 0 0 0 0 0 0 0 0 0 0 0 0 0 0 5 39 96 3 0 1 5 0 1 98 100 100 100 100
0 0 0 1 0 0 5 2 29 5 5 0 0 2 0 5 5 0 0 0 0 0 0 0 0 0 0 0 0 0 0 5 54 68 17 0 3 21 92 50 55 5 97 100 100
0 0 4 7 5 4 5 0 5 0 0 0 0 0 0 0 1 0 0 0 0 0 0 0 0 0 0 0 0 0 0 6 32 58 42 3 1 27 46 67 38 2 3 57 100
0 1 6 5 5 5 4 5 4 2 55 96 2 0 0 0 2 1 0 0 0 0 1 0 0 0 0 0 0 0 0 1 100 67 5 4 0 95 85 11 5 40 81 92 100
0 0 0 5 4 2 0 0 0 0 0 9 2 0 0 0 0 0 0 0 0 0 0 4 0 0 0 0 0 0 0 0 56 62 73 35 55 98 45 66 99 29 36 59 73
0 0 0 0 4 5 0 3 0 0 0 0 0 0 0 0 0 0 0 0 1 0 0 0 0 0 0 0 0 0 0 0 0 81 100 100 47 100 35 1 9 0 43 100 96
0 0 0 4 0 1 0 0 0 0 0 0 0 0 0 0 0 0 0 0 21 0 0 0 0 0 0 0 0 0 2 0 2 2 100 69 16 5 45 62 52 24 90 100 96